ABS 2

导读

ABS 2是由亚太卫星运营商ABS运营的通信卫星,于2014年2月6日发射入轨。作为ABS卫星舰队的核心成员,它的信号覆盖覆盖美洲、非洲、亚太、欧洲、中东及独联体地区,覆盖全球超80%人口,主要为区域提供广播电视、宽带通信等服务,支撑跨区域互联互通与数字化服务,是ABS全球卫星网络布局的重要节点,助力提升全球通信覆盖能力。

基本信息
目录编号:
39508
目录名称:
ABS 2
国际标识:
2014-006A
轨道中心:
EARTH
卫星名称:
ABS 2
卫星全名:
--
卫星状态:
在轨 (已飞行4518 天)
发射日期:
2014-02-06 UTC
国别 :
(ABS)
星等 :
--
轨道信息
数据来源 国际轨道数据 AOE轨道数据
星历时间 2026-06-20T17:45:51+0800
18小时前
查看轨道信息
2026-06-21T07:00:00+0800
4小时前
查看轨道信息
半长轴 42164.924km 42164.868km
偏心率 0.0003823 0.0003946
轨道倾角 0.018° 0.013°
近地点辐角 99.981° 103.788°
升交点赤经 333.258° 329.069°
平近点角 56.752° 256.212°
近地点 35770.667km 35770.092km
远地点 35802.907km 35803.37km
周期 1436.107分钟 1436.104分钟
每日圈数 1.002711 1.002713
详细信息
使用方式:
暂无
2D轨道图
3D轨道图
轨道高度分析图
轨道倾角分析图
轨道综合分析图
查看轨道综合分析图